Regional Weather Roundup
Issued by NWS

Home | Current Version | Previous Version | Graphics & Text | Print | Product List | Glossary On
Versions: 1 2 3 4 5 6 7 8 9 10 11 12 13 14 15 16 17 18 19 20 21 22 23 24 25 26 27 28 29 30 31 32 33 34 35 36 37 38 39 40 41 42 43 44 45 46 47 48 49 50
000
ASUS43 KFSD 211110
RWRSD

WEATHER ROUNDUP FOR SOUTH DAKOTA
NATIONAL WEATHER SERVICE SIOUX FALLS SD
600 AM CDT SUN SEP 21 2014

NOTE: "FAIR" INDICATES FEW OR NO CLOUDS BELOW 12,000 FEET WITH NO
SIGNIFICANT WEATHER AND/OR OBSTRUCTIONS TO VISIBILITY.


SDZ001>005-009-010-012>017-211200-
NORTHWEST AND NORTH CENTRAL SOUTH DAKOTA

CITY           SKY/WX    TMP DP  RH WIND       PRES   REMARKS
BUFFALO          N/A     49  34  56 NW6       30.25R
FAITH            N/A     44  36  73 W9        30.28R
MOBRIDGE       CLEAR     45  42  89 N5        30.21R
$$

SDZ012>016-024>037-041>051-057-063-072>074-211200-
SOUTHWEST AND SOUTH CENTRAL SOUTH DAKOTA

CITY           SKY/WX    TMP DP  RH WIND       PRES   REMARKS
RAPID CTY ARPT CLEAR     47  36  65 NW10      30.32S
PIERRE         CLEAR     49  42  77 W9        30.23R
CUSTER         CLEAR     41  32  70 NW6       30.39R
ELLSWORTH AFB  CLEAR     48  36  64 W7        30.32R
PHILIP         CLEAR     41  36  82 W8        30.29R
PINE RIDGE     CLEAR     36  34  92 CALM      30.33S
WINNER         FAIR      48  38  68 W8        30.25R
$$

SDZ004>011-016>023-039-040-211200-
NORTHEAST SOUTH DAKOTA

CITY           SKY/WX    TMP DP  RH WIND       PRES   REMARKS
ABERDEEN       CLEAR     50  43  77 NW9       30.15R
WATERTOWN      CLEAR     50  45  83 NW10      30.12R
SISSETON         N/A     49  47  93 N9        30.10R
$$

SDZ017-020-022-023-036>040-048>070-211200-
SOUTHEAST SOUTH DAKOTA

CITY           SKY/WX    TMP DP  RH WIND       PRES   REMARKS
SIOUX FALLS    CLEAR     50  43  77 W10       30.13R
HURON          CLEAR     49  40  71 NW9       30.16R
CHAMBERLAIN    CLEAR     48  40  73 NW9       30.22R
MITCHELL       CLEAR     48  41  76 W8        30.18R
YANKTON        CLEAR     52  41  66 W8        30.16R
$$

ABBREVIATIONS USED IN REMARKS
   TC - TEMPERATURE IN CELSIUS
  WCI - WIND CHILL INDEX
   HX - HEAT INDEX
  VSB - VISIBILITY




USA.gov is the U.S. government's official web portal to all federal, state and local government web resources and services.